EW2549 Weather Reports


Display with metric or nautical units.
time (UTC)temp
F
wind
direction
speed
MPH
gust
MPH
rain 1hr
in
rain 24hr
in
rain mn
in
humidity
%
barometer
mb
20260906051515 72 256 0.0 0.0 0.00 0.00 0.00 49 1005.1
20260906050019 73 212 0.0 0.0 0.00 0.00 0.00 48 1005.6
20260906044513 72 77 0.0 0.0 0.00 0.00 0.00 43 1005.4
20260906043012 72 69 0.0 0.0 0.00 0.00 0.00 42 1004.7
20260906041512 73 69 0.0 0.0 0.00 0.00 0.00 43 1004.3
20260906040011 73 69 0.0 0.0 0.00 0.00 0.00 40 1004.4
20260906034512 73 71 0.0 0.0 0.00 0.00 0.00 38 1004.1
20260906033010 75 327 0.0 0.0 0.00 0.00 0.00 37 1003.9
20260906031509 76 319 0.0 0.0 0.00 0.00 0.00 33 1003.7
20260906030009 77 319 0.0 0.0 0.00 0.00 0.00 32 1003.3
20260906024508 79 319 0.0 0.0 0.00 0.00 0.00 30 1003.0
20260906023010 80 319 0.0 0.0 0.00 0.00 0.00 29 1002.7
20260906021507 80 319 0.0 2.0 0.00 0.00 0.00 28 1002.6
20260906020006 81 330 0.0 1.0 0.00 0.00 0.00 28 1002.5
20260906014506 81 246 0.0 3.0 0.00 0.00 0.00 29 1002.4
20260906013005 82 313 1.0 6.0 0.00 0.00 0.00 28 1002.3
20260906011511 83 331 0.0 3.0 0.00 0.00 0.00 27 1002.3
20260906010004 84 281 0.0 4.0 0.00 0.00 0.00 27 1002.3
20260906004503 85 317 0.0 7.0 0.00 0.00 0.00 25 1002.1
20260906001502 89 5 0.0 1.0 0.00 0.00 0.00 23 1002.1
20260906000001 91 18 0.0 0.0 0.00 0.00 0.00 23 1002.0
20260905234502 92 65 0.0 0.0 0.00 0.00 0.00 22 1002.0
20260905233111 93 65 0.0 0.0 0.00 0.00 0.00 21 1002.0
20260905231600 94 38 0.0 0.0 0.00 0.00 0.00 20 1001.8
20260905230059 95 113 0.0 3.0 0.00 0.00 0.00 18 1001.8
20260905224608 94 87 0.0 4.0 0.00 0.00 0.00 18 1001.8
20260905223058 96 71 0.0 4.0 0.00 0.00 0.00 18 1001.7
20260905221559 95 238 0.0 5.0 0.00 0.00 0.00 19 1001.9
20260905214552 95 30 0.0 4.0 0.00 0.00 0.00 18 1002.1
20260905213057 95 360 0.0 5.0 0.00 0.00 0.00 19 1002.3
20260905211550 96 80 0.0 7.0 0.00 0.00 0.00 19 1002.6
20260905210104 95 96 0.0 1.0 0.00 0.00 0.00 19 1002.7
20260905204544 94 336 0.0 5.0 0.00 0.00 0.00 19 1002.8
20260905203043 93 298 0.0 8.0 0.00 0.00 0.00 21 1003.1
20260905201540 91 114 0.0 8.0 0.00 0.00 0.00 20 1003.3
20260905200052 91 74 0.0 7.0 0.00 0.00 0.00 22 1003.5
20260905194538 91 17 0.0 4.0 0.00 0.00 0.00 22 1003.6
20260905193035 91 101 1.0 8.0 0.00 0.00 0.00 21 1003.7
20260905191540 91 69 0.0 8.0 0.00 0.00 0.00 21 1003.9
20260905190034 91 25 1.0 5.0 0.00 0.00 0.00 22 1004.1
20260905184535 90 74 1.0 10.0 0.00 0.00 0.00 23 1004.2
20260905183026 89 129 0.0 7.0 0.00 0.00 0.00 25 1004.3
20260905181524 88 123 0.0 4.0 0.00 0.00 0.00 27 1004.4
20260905180023 89 144 0.0 8.0 0.00 0.00 0.00 26 1004.6
20260905174520 87 107 1.0 6.0 0.00 0.00 0.00 27 1004.7
20260905173018 86 139 0.0 4.0 0.00 0.00 0.00 28 1004.7
20260905171617 86 109 0.0 8.0 0.00 0.00 0.00 27 1004.7
20260905170017 86 113 0.0 5.0 0.00 0.00 0.00 28 1004.5
20260905164516 86 118 0.0 6.0 0.00 0.00 0.00 30 1004.5
20260905163009 85 171 0.0 7.0 0.00 0.00 0.00 28 1004.4
20260905161505 82 96 0.0 5.0 0.00 0.00 0.00 33 1004.3
20260905160002 79 138 0.0 0.0 0.00 0.00 0.00 36 1004.4
20260905154559 77 209 0.0 0.0 0.00 0.00 0.00 40 1004.4
20260905153053 75 260 0.0 0.0 0.00 0.00 0.00 43 1004.3
20260905151552 75 261 0.0 0.0 0.00 0.00 0.00 49 1004.5
20260905150048 74 261 0.0 0.0 0.00 0.00 0.00 44 1004.6
20260905144551 71 261 0.0 0.0 0.00 0.00 0.00 52 1004.7
20260905143042 68 260 0.0 0.0 0.00 0.00 0.00 55 1004.9
20260905141540 64 260 0.0 0.0 0.00 0.00 0.00 58 1004.9
20260905140041 62 260 0.0 0.0 0.00 0.00 0.00 61 1004.8
20260905134544 60 261 0.0 0.0 0.00 0.00 0.00 65 1004.6
20260905133037 59 261 0.0 0.0 0.00 0.00 0.00 64 1004.7
20260905131535 58 261 0.0 0.0 0.00 0.00 0.00 61 1004.6
20260905130034 58 261 0.0 0.0 0.00 0.00 0.00 58 1004.6
20260905124540 58 261 0.0 0.0 0.00 0.00 0.00 57 1004.3
20260905123029 59 261 0.0 0.0 0.00 0.00 0.00 57 1004.1
20260905121526 59 261 0.0 0.0 0.00 0.00 0.00 57 1004.1
20260905120027 60 261 0.0 0.0 0.00 0.00 0.00 56 1003.9
20260905114521 60 261 0.0 5.0 0.00 0.00 0.00 54 1003.9
20260905113019 61 276 0.0 0.0 0.00 0.00 0.00 53 1003.9
20260905111516 61 276 0.0 0.0 0.00 0.00 0.00 52 1003.9
20260905104520 63 277 0.0 0.0 0.00 0.00 0.00 51 1003.7
20260905103011 63 277 0.0 0.0 0.00 0.00 0.00 50 1003.6
20260905101509 64 240 0.0 0.0 0.00 0.00 0.00 50 1003.6
20260905100007 64 240 0.0 0.0 0.00 0.00 0.00 49 1003.7
20260905094506 64 240 0.0 0.0 0.00 0.00 0.00 49 1003.5
20260905093006 64 240 0.0 0.0 0.00 0.00 0.00 50 1003.4
20260905091506 63 240 0.0 5.0 0.00 0.00 0.00 50 1003.2
20260905090004 63 311 0.0 0.0 0.00 0.00 0.00 52 1003.3
20260905084506 62 311 0.0 0.0 0.00 0.00 0.00 52 1003.3
20260905083003 62 335 0.0 0.0 0.00 0.00 0.00 51 1003.4
20260905081500 63 335 0.0 0.0 0.00 0.00 0.00 50 1003.4
20260905080101 63 335 0.0 0.0 0.00 0.00 0.00 52 1003.4
20260905074555 64 335 0.0 0.0 0.00 0.00 0.00 51 1003.4
20260905073052 64 335 0.0 0.0 0.00 0.00 0.00 48 1003.5
20260905071558 65 335 0.0 0.0 0.00 0.00 0.00 49 1003.5
20260905070048 65 334 0.0 0.0 0.00 0.00 0.00 47 1003.4
20260905064552 66 334 0.0 0.0 0.00 0.00 0.00 44 1003.3
20260905063041 67 334 0.0 0.0 0.00 0.00 0.00 44 1003.0
20260905061555 69 335 0.0 0.0 0.00 0.00 0.00 42 1003.3
20260905060034 69 335 0.0 0.0 0.00 0.00 0.00 41 1003.2
20260905054534 70 335 0.0 0.0 0.00 0.00 0.00 39 1003.0
20260905053033 71 335 0.0 0.0 0.00 0.00 0.00 37 1003.1